Time,TemperatureF,DewpointF,PressureIn,WindDirection,WindDirectionDegrees,WindSpeedMPH,WindSpeedGustMPH,Humidity,HourlyPrecipIn,Conditions,Clouds,dailyrainin,SoftwareType,DateUTC
2013-04-02 00:02:00,53.0,41.0,30.13,East,100,1.0,6.0,63,0.00,,,0.01,,2013-04-02 05:02:00,
2013-04-02 00:12:00,53.0,41.0,30.13,East,100,1.0,6.0,63,0.00,,,0.01,,2013-04-02 05:12:00,
2013-04-02 00:22:00,53.0,40.0,30.12,ENE,77,3.0,6.0,62,0.00,,,0.01,,2013-04-02 05:22:00,
2013-04-02 00:32:00,53.0,40.0,30.13,East,79,1.0,5.0,62,0.00,,,0.01,,2013-04-02 05:32:00,
2013-04-02 00:42:00,53.0,40.0,30.13,East,79,1.0,5.0,62,0.00,,,0.01,,2013-04-02 05:42:00,
2013-04-02 00:52:00,52.0,39.0,30.14,ESE,102,1.0,5.0,62,0.00,,,0.01,,2013-04-02 05:52:00,
2013-04-02 01:02:00,52.0,39.0,30.15,WSW,250,1.0,3.0,62,0.00,,,0.01,,2013-04-02 06:02:00,
2013-04-02 01:12:00,52.0,39.0,30.15,WSW,250,1.0,3.0,62,0.00,,,0.01,,2013-04-02 06:12:00,
2013-04-02 01:22:00,52.0,39.0,30.15,ESE,117,1.0,4.0,62,0.00,,,0.01,,2013-04-02 06:22:00,
2013-04-02 01:32:00,52.0,40.0,30.16,SE,139,0.0,3.0,63,0.00,,,0.01,,2013-04-02 06:32:00,
2013-04-02 01:42:00,52.0,40.0,30.16,SE,139,0.0,3.0,63,0.00,,,0.01,,2013-04-02 06:42:00,
2013-04-02 01:52:00,51.0,39.0,30.16,ESE,120,0.0,4.0,63,0.00,,,0.01,,2013-04-02 06:52:00,
2013-04-02 02:02:00,51.0,39.0,30.16,ENE,65,1.0,5.0,63,0.00,,,0.01,,2013-04-02 07:02:00,
2013-04-02 02:12:00,51.0,39.0,30.16,ENE,65,1.0,5.0,63,0.00,,,0.01,,2013-04-02 07:12:00,
2013-04-02 02:22:00,51.0,38.0,30.17,East,97,0.0,3.0,62,0.00,,,0.01,,2013-04-02 07:22:00,
2013-04-02 02:32:00,51.0,38.0,30.18,East,96,1.0,3.0,61,0.00,,,0.01,,2013-04-02 07:32:00,
2013-04-02 02:42:00,51.0,38.0,30.18,East,96,1.0,3.0,61,0.00,,,0.01,,2013-04-02 07:42:00,
2013-04-02 02:52:00,50.0,37.0,30.18,East,86,0.0,4.0,61,0.00,,,0.01,,2013-04-02 07:52:00,
2013-04-02 03:02:00,50.0,37.0,30.19,East,83,0.0,3.0,60,0.00,,,0.01,,2013-04-02 08:02:00,
2013-04-02 03:13:00,50.0,37.0,30.19,East,83,0.0,3.0,60,0.00,,,0.01,,2013-04-02 08:13:00,
2013-04-02 03:22:00,50.0,36.0,30.19,East,86,1.0,5.0,59,0.00,,,0.01,,2013-04-02 08:22:00,
2013-04-02 03:32:00,49.0,35.0,30.19,East,94,2.0,5.0,58,0.00,,,0.01,,2013-04-02 08:32:00,
2013-04-02 03:42:00,49.0,35.0,30.19,East,94,2.0,5.0,58,0.00,,,0.01,,2013-04-02 08:42:00,
2013-04-02 03:52:00,49.0,35.0,30.19,East,96,0.0,5.0,58,0.00,,,0.01,,2013-04-02 08:52:00,
2013-04-02 04:02:00,48.0,34.0,30.19,ENE,72,1.0,3.0,57,0.00,,,0.01,,2013-04-02 09:02:00,
2013-04-02 04:12:00,48.0,34.0,30.19,ENE,72,1.0,3.0,57,0.00,,,0.01,,2013-04-02 09:12:00,
2013-04-02 04:22:00,48.0,33.0,30.20,NE,55,1.0,6.0,56,0.00,,,0.01,,2013-04-02 09:22:00,
2013-04-02 04:32:00,47.0,33.0,30.20,ESE,104,2.0,8.0,57,0.00,,,0.01,,2013-04-02 09:32:00,
2013-04-02 04:43:00,47.0,33.0,30.20,ESE,104,2.0,8.0,57,0.00,,,0.01,,2013-04-02 09:43:00,
2013-04-02 04:53:00,47.0,32.0,30.20,ENE,73,2.0,10.0,55,0.00,,,0.01,,2013-04-02 09:53:00,
2013-04-02 05:03:00,47.0,32.0,30.20,NE,39,3.0,6.0,55,0.00,,,0.01,,2013-04-02 10:03:00,
2013-04-02 05:13:00,47.0,32.0,30.20,NE,39,3.0,6.0,55,0.00,,,0.01,,2013-04-02 10:13:00,
2013-04-02 05:23:00,47.0,32.0,30.20,East,90,2.0,10.0,55,0.00,,,0.01,,2013-04-02 10:23:00,
2013-04-02 05:33:00,47.0,32.0,30.20,East,84,3.0,13.0,55,0.00,,,0.01,,2013-04-02 10:33:00,
2013-04-02 05:42:00,47.0,32.0,30.20,East,84,3.0,13.0,55,0.00,,,0.01,,2013-04-02 10:42:00,
2013-04-02 05:52:00,46.0,30.0,30.20,ENE,61,4.0,8.0,54,0.00,,,0.01,,2013-04-02 10:52:00,
2013-04-02 06:02:00,46.0,31.0,30.20,East,88,2.0,7.0,55,0.00,,,0.01,,2013-04-02 11:02:00,
2013-04-02 06:12:00,46.0,31.0,30.20,East,88,2.0,7.0,55,0.00,,,0.01,,2013-04-02 11:12:00,
2013-04-02 06:22:00,46.0,30.0,30.22,ENE,75,1.0,6.0,54,0.00,,,0.01,,2013-04-02 11:22:00,
2013-04-02 06:32:00,46.0,30.0,30.22,ENE,72,3.0,8.0,53,0.00,,,0.01,,2013-04-02 11:32:00,
2013-04-02 06:43:00,46.0,30.0,30.22,ENE,72,3.0,8.0,53,0.00,,,0.01,,2013-04-02 11:43:00,
2013-04-02 06:53:00,46.0,30.0,30.22,ESE,106,4.0,8.0,54,0.00,,,0.01,,2013-04-02 11:53:00,
2013-04-02 07:02:00,46.0,30.0,30.22,ENE,62,4.0,8.0,54,0.00,,,0.01,,2013-04-02 12:02:00,
2013-04-02 07:12:00,46.0,30.0,30.22,ENE,62,4.0,8.0,54,0.00,,,0.01,,2013-04-02 12:12:00,
2013-04-02 07:22:00,46.0,30.0,30.22,East,88,2.0,9.0,54,0.00,,,0.01,,2013-04-02 12:22:00,
2013-04-02 07:32:00,46.0,31.0,30.23,East,96,1.0,10.0,55,0.00,,,0.01,,2013-04-02 12:32:00,
2013-04-02 07:42:00,46.0,31.0,30.23,East,96,1.0,10.0,55,0.00,,,0.01,,2013-04-02 12:42:00,
2013-04-02 07:52:00,46.0,30.0,30.25,East,81,2.0,7.0,54,0.00,,,0.01,,2013-04-02 12:52:00,
2013-04-02 08:02:00,46.0,30.0,30.25,ENE,76,3.0,7.0,53,0.00,,,0.01,,2013-04-02 13:02:00,
2013-04-02 08:12:00,46.0,30.0,30.25,ENE,76,3.0,7.0,53,0.00,,,0.01,,2013-04-02 13:12:00,
2013-04-02 08:22:00,46.0,29.0,30.26,East,98,1.0,8.0,52,0.00,,,0.01,,2013-04-02 13:22:00,
2013-04-02 08:33:00,46.0,29.0,30.27,NE,46,2.0,8.0,51,0.00,,,0.01,,2013-04-02 13:33:00,
2013-04-02 08:42:00,46.0,29.0,30.27,NE,46,2.0,8.0,51,0.00,,,0.01,,2013-04-02 13:42:00,
2013-04-02 08:52:00,46.0,28.0,30.27,ENE,70,4.0,8.0,50,0.00,,,0.01,,2013-04-02 13:52:00,
2013-04-02 09:02:00,47.0,28.0,30.27,East,81,7.0,12.0,48,0.00,,,0.01,,2013-04-02 14:02:00,
2013-04-02 09:12:00,47.0,28.0,30.27,East,81,7.0,12.0,48,0.00,,,0.01,,2013-04-02 14:12:00,
2013-04-02 09:23:00,46.0,27.0,30.27,ESE,104,3.0,8.0,48,0.00,,,0.00,,2013-04-02 14:23:00,
2013-04-02 09:32:00,46.0,27.0,30.27,NE,50,5.0,11.0,47,0.00,,,0.00,,2013-04-02 14:32:00,
2013-04-02 09:42:00,46.0,27.0,30.27,NE,50,5.0,11.0,47,0.00,,,0.00,,2013-04-02 14:42:00,
2013-04-02 09:52:00,47.0,29.0,30.27,ENE,70,4.0,10.0,49,0.00,,,0.00,,2013-04-02 14:52:00,
2013-04-02 10:02:00,47.0,28.0,30.27,ESE,102,6.0,9.0,47,0.00,,,0.00,,2013-04-02 15:02:00,
2013-04-02 10:11:00,47.0,28.0,30.27,ESE,102,6.0,9.0,47,0.00,,,0.00,,2013-04-02 15:11:00,
2013-04-02 10:22:00,47.0,28.0,30.26,ENE,64,3.0,9.0,47,0.00,,,0.00,,2013-04-02 15:22:00,
2013-04-02 10:33:00,48.0,28.0,30.27,ENE,72,2.0,11.0,46,0.00,,,0.00,,2013-04-02 15:33:00,
2013-04-02 10:43:00,48.0,28.0,30.27,ENE,72,2.0,11.0,46,0.00,,,0.00,,2013-04-02 15:43:00,
2013-04-02 10:57:00,49.0,29.0,30.27,SE,131,3.0,9.0,45,0.00,,,0.00,,2013-04-02 15:57:00,
2013-04-02 11:03:00,49.0,27.0,30.27,SSW,212,3.0,10.0,43,0.00,,,0.00,,2013-04-02 16:03:00,
2013-04-02 11:24:00,49.0,28.0,30.27,ENE,66,3.0,8.0,44,0.00,,,0.00,,2013-04-02 16:24:00,
2013-04-02 11:35:00,49.0,28.0,30.28,East,94,4.0,10.0,44,0.00,,,0.00,,2013-04-02 16:35:00,
2013-04-02 11:43:00,49.0,28.0,30.28,East,94,4.0,10.0,44,0.00,,,0.00,,2013-04-02 16:43:00,
2013-04-02 11:53:00,48.0,28.0,30.28,ENE,62,4.0,12.0,45,0.00,,,0.00,,2013-04-02 16:53:00,
2013-04-02 12:05:00,49.0,29.0,30.27,ENE,58,4.0,8.0,45,0.00,,,0.00,,2013-04-02 17:05:00,
2013-04-02 12:13:00,49.0,29.0,30.27,ENE,58,4.0,8.0,45,0.00,,,0.00,,2013-04-02 17:13:00,
2013-04-02 12:24:00,49.0,29.0,30.27,ENE,75,3.0,8.0,45,0.00,,,0.00,,2013-04-02 17:24:00,
2013-04-02 12:43:00,50.0,28.0,30.28,East,86,4.0,9.0,43,0.00,,,0.00,,2013-04-02 17:43:00,
2013-04-02 12:55:00,50.0,29.0,30.28,ESE,123,1.0,7.0,44,0.00,,,0.00,,2013-04-02 17:55:00,
2013-04-02 13:03:00,51.0,28.0,30.27,East,91,3.0,8.0,41,0.00,,,0.00,,2013-04-02 18:03:00,
2013-04-02 13:12:00,51.0,28.0,30.27,East,91,3.0,8.0,41,0.00,,,0.00,,2013-04-02 18:12:00,
2013-04-02 13:23:00,51.0,29.0,30.27,East,84,1.0,7.0,42,0.00,,,0.00,,2013-04-02 18:23:00,
2013-04-02 13:34:00,50.0,28.0,30.27,ENE,61,1.0,6.0,42,0.00,,,0.00,,2013-04-02 18:34:00,
2013-04-02 13:43:00,50.0,28.0,30.27,ENE,61,1.0,6.0,42,0.00,,,0.00,,2013-04-02 18:43:00,
2013-04-02 13:57:00,50.0,28.0,30.27,East,79,1.0,5.0,42,0.00,,,0.00,,2013-04-02 18:57:00,
2013-04-02 14:03:00,50.0,28.0,30.27,SSW,200,2.0,7.0,42,0.00,,,0.00,,2013-04-02 19:03:00,
2013-04-02 14:13:00,50.0,28.0,30.27,SSW,200,2.0,7.0,42,0.00,,,0.00,,2013-04-02 19:13:00,
2013-04-02 14:23:00,50.0,29.0,30.26,East,84,1.0,6.0,44,0.00,,,0.00,,2013-04-02 19:23:00,
2013-04-02 14:33:00,50.0,28.0,30.25,East,101,4.0,8.0,43,0.00,,,0.00,,2013-04-02 19:33:00,
2013-04-02 14:45:00,50.0,28.0,30.25,East,101,4.0,8.0,43,0.00,,,0.00,,2013-04-02 19:45:00,
2013-04-02 14:56:00,49.0,27.0,30.25,ESE,109,4.0,10.0,43,0.00,,,0.00,,2013-04-02 19:56:00,
2013-04-02 15:03:00,49.0,28.0,30.25,ENE,68,3.0,10.0,44,0.00,,,0.00,,2013-04-02 20:03:00,
2013-04-02 15:13:00,49.0,28.0,30.25,ENE,68,3.0,10.0,44,0.00,,,0.00,,2013-04-02 20:13:00,
2013-04-02 15:22:00,50.0,29.0,30.25,ESE,104,0.0,9.0,45,0.00,,,0.00,,2013-04-02 20:22:00,
2013-04-02 15:33:00,49.0,28.0,30.24,ESE,113,6.0,14.0,44,0.00,,,0.00,,2013-04-02 20:33:00,
2013-04-02 15:43:00,49.0,28.0,30.24,ESE,113,6.0,14.0,44,0.00,,,0.00,,2013-04-02 20:43:00,
2013-04-02 15:54:00,49.0,28.0,30.24,ESE,113,6.0,14.0,44,0.00,,,0.00,,2013-04-02 20:54:00,
2013-04-02 16:03:00,49.0,30.0,30.22,ESE,108,1.0,6.0,47,0.00,,,0.00,,2013-04-02 21:03:00,
2013-04-02 16:13:00,49.0,30.0,30.22,ESE,108,1.0,6.0,47,0.00,,,0.00,,2013-04-02 21:13:00,
2013-04-02 16:23:00,48.0,28.0,30.25,SE,125,1.0,4.0,46,0.00,,,0.00,,2013-04-02 21:23:00,
2013-04-02 16:34:00,48.0,29.0,30.24,South,174,2.0,7.0,47,0.00,,,0.00,,2013-04-02 21:34:00,
2013-04-02 16:43:00,48.0,29.0,30.24,South,174,2.0,7.0,47,0.00,,,0.00,,2013-04-02 21:43:00,
2013-04-02 16:55:00,47.0,29.0,30.25,ESE,108,3.0,7.0,50,0.00,,,0.00,,2013-04-02 21:55:00,
2013-04-02 17:04:00,47.0,31.0,30.25,ENE,72,0.0,4.0,53,0.00,,,0.00,,2013-04-02 22:04:00,
2013-04-02 17:14:00,47.0,31.0,30.25,ENE,72,0.0,4.0,53,0.00,,,0.00,,2013-04-02 22:14:00,
2013-04-02 17:24:00,46.0,33.0,30.24,East,84,3.0,6.0,60,0.00,,,0.00,,2013-04-02 22:24:00,
2013-04-02 17:33:00,45.0,35.0,30.24,East,94,2.0,8.0,67,0.00,,,0.00,,2013-04-02 22:33:00,
2013-04-02 17:43:00,45.0,35.0,30.24,East,94,2.0,8.0,67,0.00,,,0.00,,2013-04-02 22:43:00,
2013-04-02 17:54:00,44.0,35.0,30.25,ENE,75,1.0,5.0,70,0.01,,,0.01,,2013-04-02 22:54:00,
2013-04-02 18:02:00,44.0,36.0,30.24,ESE,104,1.0,4.0,74,0.02,,,0.02,,2013-04-02 23:02:00,
2013-04-02 18:13:00,44.0,36.0,30.24,ESE,104,1.0,4.0,74,0.02,,,0.02,,2013-04-02 23:13:00,
2013-04-02 18:23:00,43.0,37.0,30.25,SE,131,0.0,1.0,80,0.03,,,0.03,,2013-04-02 23:23:00,
2013-04-02 18:34:00,42.0,37.0,30.24,East,86,0.0,1.0,82,0.04,,,0.04,,2013-04-02 23:34:00,
2013-04-02 18:42:00,42.0,37.0,30.24,East,86,0.0,1.0,82,0.04,,,0.04,,2013-04-02 23:42:00,
2013-04-02 18:54:00,42.0,38.0,30.25,ENE,76,0.0,0.0,84,0.05,,,0.06,,2013-04-02 23:54:00,
2013-04-02 19:03:00,42.0,38.0,30.25,East,83,0.0,1.0,85,0.04,,,0.06,,2013-04-03 00:03:00,
2013-04-02 19:13:00,42.0,38.0,30.25,East,83,0.0,1.0,85,0.04,,,0.06,,2013-04-03 00:13:00,
2013-04-02 19:33:00,41.0,37.0,30.23,ESE,120,0.0,1.0,86,0.04,,,0.08,,2013-04-03 00:33:00,
2013-04-02 19:46:00,41.0,37.0,30.23,ESE,120,0.0,1.0,86,0.04,,,0.08,,2013-04-03 00:46:00,
2013-04-02 19:55:00,41.0,38.0,30.24,SSE,152,0.0,2.0,88,0.03,,,0.09,,2013-04-03 00:55:00,
2013-04-02 20:03:00,41.0,38.0,30.24,East,79,0.0,2.0,88,0.04,,,0.10,,2013-04-03 01:03:00,
2013-04-02 20:12:00,41.0,38.0,30.24,East,79,0.0,2.0,88,0.04,,,0.10,,2013-04-03 01:12:00,
2013-04-02 20:22:00,40.0,37.0,30.24,ESE,121,0.0,1.0,89,0.04,,,0.11,,2013-04-03 01:22:00,
2013-04-02 20:33:00,40.0,37.0,30.24,East,94,1.0,3.0,89,0.04,,,0.13,,2013-04-03 01:33:00,
2013-04-02 20:42:00,40.0,37.0,30.24,East,94,1.0,3.0,89,0.04,,,0.13,,2013-04-03 01:42:00,
2013-04-02 20:53:00,40.0,37.0,30.24,ENE,69,1.0,3.0,89,0.04,,,0.13,,2013-04-03 01:53:00,
2013-04-02 21:03:00,40.0,37.0,30.25,East,88,0.0,2.0,89,0.04,,,0.14,,2013-04-03 02:03:00,
2013-04-02 21:13:00,40.0,37.0,30.25,East,88,0.0,2.0,89,0.04,,,0.14,,2013-04-03 02:13:00,
2013-04-02 21:24:00,40.0,37.0,30.25,SE,126,0.0,1.0,90,0.05,,,0.16,,2013-04-03 02:24:00,
2013-04-02 21:34:00,40.0,38.0,30.26,SE,124,0.0,1.0,91,0.04,,,0.17,,2013-04-03 02:34:00,
2013-04-02 21:43:00,40.0,38.0,30.26,SE,124,0.0,1.0,91,0.04,,,0.17,,2013-04-03 02:43:00,
2013-04-02 21:53:00,40.0,38.0,30.26,SSW,198,0.0,1.0,91,0.04,,,0.17,,2013-04-03 02:53:00,
2013-04-02 22:04:00,40.0,38.0,30.26,SW,221,0.0,2.0,91,0.03,,,0.17,,2013-04-03 03:04:00,
2013-04-02 22:13:00,40.0,38.0,30.26,SW,221,0.0,2.0,91,0.03,,,0.17,,2013-04-03 03:13:00,
2013-04-02 22:23:00,40.0,38.0,30.26,East,90,0.0,1.0,91,0.02,,,0.18,,2013-04-03 03:23:00,
2013-04-02 22:37:00,40.0,37.0,30.26,East,88,0.0,1.0,90,0.01,,,0.18,,2013-04-03 03:37:00,
2013-04-02 22:43:00,40.0,37.0,30.26,East,88,0.0,1.0,90,0.01,,,0.18,,2013-04-03 03:43:00,
2013-04-02 22:54:00,40.0,37.0,30.26,East,96,1.0,4.0,89,0.01,,,0.18,,2013-04-03 03:54:00,
2013-04-02 23:03:00,40.0,37.0,30.24,East,85,1.0,3.0,89,0.01,,,0.18,,2013-04-03 04:03:00,
2013-04-02 23:12:00,40.0,37.0,30.24,East,85,1.0,3.0,89,0.01,,,0.18,,2013-04-03 04:12:00,
2013-04-02 23:23:00,40.0,37.0,30.24,SE,145,1.0,4.0,89,0.00,,,0.18,,2013-04-03 04:23:00,
2013-04-02 23:33:00,40.0,36.0,30.23,ENE,73,1.0,5.0,87,0.00,,,0.18,,2013-04-03 04:33:00,
2013-04-02 23:43:00,40.0,36.0,30.23,ENE,73,1.0,5.0,87,0.00,,,0.18,,2013-04-03 04:43:00,
2013-04-02 23:53:00,40.0,36.0,30.23,ESE,115,1.0,3.0,86,0.00,,,0.18,,2013-04-03 04:53:00,